#timestamp,LO_Frequency,Hit,StdDev 
1620738015.7,286046998.9,N
1620738035.5,286046999.0,N
1620738055.3,286046996.9,N
1620738075.2,286046999.4,N
1620738095.0,286046999.3,N
1620738095.9,286046999.3,N
1620738115.7,286046998.0,N
1620738135.6,286046997.8,N
1620738155.4,286046997.4,N
1620738175.3,286046997.5,N
1620738195.1,286046997.1,Y
1620738196.0,286046997.1,P
1620738215.8,286046998.9,N
1620738235.7,286046998.5,N
1620738255.5,286046998.5,N
1620738275.3,286046998.1,Y
1620738295.2,286046999.7,P
1620738315.9,286047002.2,P
1620738335.7,286047001.4,N
1620738355.6,286047002.8,N
1620738375.4,286047002.7,N
1620738395.2,286047000.1,N
1620738415.1,286046999.7,N
1620738416.0,286046999.7,N
1620738435.8,286047000.8,N
1620738455.6,286047000.7,N
1620738475.5,286047000.3,N
1620738495.3,286047000.8,N
1620738515.1,286047001.1,N
1620738535.9,286046998.4,N
1620738555.7,286046999.3,N
1620738575.5,286046999.5,N
1620738595.4,286046999.6,N
1620738615.2,286046999.6,N
1620738635.0,286046999.4,N
1620738635.9,286046999.4,N
1620738655.8,286046996.8,N
1620738675.6,286046997.6,N
1620738695.4,286046996.7,N
1620738715.3,286046996.9,N
1620738735.1,286046997.1,N
1620738755.8,286046997.3,N
1620738775.7,286046997.8,N
1620738795.5,286046996.5,N
1620738815.3,286046996.5,N
1620738835.2,286046996.5,N
1620738855.0,286046996.9,N
1620738855.9,286046996.9,N
1620738875.7,286046999.5,N
1620738895.6,286046999.2,N
1620738915.4,286046999.6,N
1620738935.3,286046996.6,N
1620738955.1,286046997.1,N
1620738956.0,286046997.1,N
1620738975.8,286046999.4,N
1620738995.7,286046999.3,N
1620739015.5,286046999.3,N
1620739035.3,286046999.0,N
1620739055.2,286046999.0,N
1620739075.9,286046997.0,N
1620739095.7,286046997.5,N
1620739115.6,286046997.7,N
1620739135.4,286046996.7,N
1620739155.2,286046997.0,N
1620739175.1,286046996.7,N
1620739176.0,286046996.7,Y
1620739195.8,286046998.8,P
1620739215.7,286047000.7,N
1620739235.5,286047001.2,N
1620739255.3,286047001.0,N
1620739275.1,286047001.0,N
1620739295.9,286047000.4,N
1620739315.7,286047000.9,N
1620739335.5,286047001.0,N
1620739355.4,286046998.6,N
1620739375.2,286047000.9,N
1620739395.0,286047000.3,N
1620739396.0,286047000.3,N
1620739415.8,286047000.0,N
1620739435.6,286046998.4,N
1620739455.4,286046997.0,N
1620739475.3,286046996.5,N
1620739495.1,286046999.1,N
1620739515.8,286046998.8,N
1620739535.7,286047001.2,N
1620739555.5,286047000.8,N
1620739575.3,286047001.2,N
1620739595.2,286046998.2,N
1620739615.0,286046998.2,N
1620739615.9,286046998.2,N
1620739635.7,286046998.7,N
1620739655.6,286046998.6,N
1620739675.4,286046998.2,N
1620739695.2,286046999.0,N
1620739715.1,286046999.6,N
1620739716.0,286046999.6,N
1620739735.8,286046998.6,N
1620739755.7,286046998.2,N
1620739775.5,286046998.1,N
1620739795.3,286046998.9,N
1620739815.2,286046998.7,N
1620739835.9,286046998.3,N
1620739855.7,286046998.9,N
1620739875.6,286046999.3,N
1620739895.4,286046999.4,N
1620739915.2,286046999.2,N
1620739935.1,286046999.3,N
1620739936.0,286046999.3,N
1620739955.8,286047001.1,N
1620739975.6,286046999.2,N
1620739995.5,286046998.9,N
1620740015.3,286046997.0,Y
1620740035.1,286046999.1,P
1620740055.9,286046997.0,P
1620740075.7,286046997.1,N
1620740095.5,286046997.1,N
1620740115.4,286046996.9,Y
1620740135.2,286047000.8,P
1620740155.0,286047001.2,N
1620740155.9,286047001.2,N
1620740175.8,286046998.2,N
1620740195.6,286046998.6,N
1620740215.4,286047001.1,N
1620740235.3,286047000.7,N
1620740255.1,286047000.8,N
1620740256.0,286047000.8,N
1620740275.8,286047000.7,N
1620740295.7,286046998.5,N
1620740315.5,286046998.8,N
1620740335.3,286046998.2,N
1620740355.2,286046998.1,N
1620740375.9,286046998.6,N
1620740395.7,286046999.0,N
1620740415.6,286046998.7,N
1620740435.4,286046998.3,N
1620740455.2,286046998.1,N
1620740475.1,286047000.6,N
1620740476.0,286047000.6,N
1620740495.8,286047000.8,N
1620740515.6,286047001.2,N
1620740535.5,286046998.6,N
1620740555.3,286047001.2,N
1620740575.1,286047001.0,N
1620740595.9,286047000.8,N
1620740615.7,286046998.1,N
1620740635.5,286046998.7,N
1620740655.4,286046999.4,N
1620740675.2,286046998.6,N
1620740695.0,286047000.7,N
1620740695.9,286047000.7,N
1620740715.8,286047000.9,N
1620740735.6,286047001.1,N
1620740755.4,286047000.0,N
1620740775.3,286047000.3,N
1620740795.1,286047001.0,N
1620740815.8,286046998.2,N
1620740835.7,286046998.5,N
1620740855.5,286047000.4,N
1620740875.3,286047000.5,N
1620740895.2,286046998.6,N
1620740915.0,286046998.3,N
1620740915.9,286046998.3,N
1620740935.7,286046998.6,N
1620740955.6,286046998.6,N
1620740975.4,286047001.1,N
1620740995.2,286046998.5,N
1620741015.1,286046998.6,N
1620741016.0,286046998.6,N
1620741035.8,286046998.9,N
1620741055.6,286046999.6,N
1620741075.5,286046999.6,N
1620741095.3,286046999.5,N
1620741115.1,286046999.1,N
1620741135.9,286046999.3,N
1620741155.7,286046996.6,Y
1620741175.6,286046999.0,P
1620741195.4,286046998.9,P
1620741215.2,286046998.3,P
1620741235.1,286046998.3,Y
1620741236.0,286046998.3,P
1620741255.8,286047000.9,N
1620741275.6,286047001.0,N
1620741295.5,286047000.7,N
1620741315.3,286046999.9,N
1620741335.1,286047000.8,N
1620741355.9,286046998.9,N
1620741375.7,286046999.3,N
1620741395.5,286046998.4,N
1620741415.4,286046998.2,N
1620741435.2,286046998.4,N
1620741455.0,286046998.3,N
1620741455.9,286046998.3,N
1620741505.8,286046998.1,E
1620741515.7,286047001.1,N
1620741535.5,286047002.8,P
1620741555.4,286047001.9,N
1620741575.2,286047002.0,N
1620741595.0,286047002.1,Y
1620741595.9,286047002.1,P
